[[{"header":{"parameterUnit":"m.s-1","parameterCategory":2,"la1":30.2991,"la2":30.254,"lo1":-89.0895,"lo2":-89.0444,"dy":0.0017,"dx":0.0017,"nx":28,"ny":28,"refTime":"2025-06-02T03:00:00:Z","depth":"0","parameterNumber":2,"parameterNumberName":"U-component_of_CURRENTS"},"data":[0,0,0,0,0,0,0,0,0,0,0,0,0,0,0,0,0,0,0,0,0,0,0,0,0,0,0,0,0,0,0,0,0,0,0,0,0,0,0,0,0,0,0,0,0,0,0,0,0,0,0,0,0,0,0,0,0,0,-0.2328,-0.2329,0,-0.2357,-0.2357,-0.2357,-0.2345,-0.2345,-0.2344,-0.2344,-0.2285,-0.2284,-0.2282,0,0,0,0,0,0,0,0,0,0,0,0,0,-0.2259,-0.226,-0.2328,-0.2329,-0.233,-0.2357,-0.2357,-0.2357,-0.2345,-0.2345,-0.2344,-0.2344,-0.2285,-0.2284,-0.2282,0,0,0,0,0,0,0,0,0,0,0,0,0,-0.2285,-0.226,-0.2328,-0.233,-0.2331,-0.2357,-0.2357,-0.2357,-0.2345,-0.2345,-0.2344,-0.2344,-0.2286,-0.2284,-0.2282,-0.228,0,0,-0.2276,-0.2275,0,0,0,0,0,0,0,0,-0.2283,-0.2287,-0.2329,-0.233,-0.2331,-0.235,-0.2311,-0.2328,-0.2345,-0.2336,-0.2344,-0.2344,-0.2301,-0.2298,-0.2301,-0.2278,-0.2275,-0.2276,-0.2275,-0.2274,-0.2273,0,0,0,0,0,0,0,-0.2282,-0.2286,-0.2336,-0.233,-0.2331,-0.2328,-0.233,-0.2314,-0.2317,-0.2337,-0.2337,-0.2346,-0.23,-0.2302,-0.2299,-0.2274,-0.2276,-0.2274,-0.2273,-0.2272,-0.23,-0.2302,0,0,0,0,0,0,-0.2287,-0.2284,-0.2335,-0.2337,-0.2309,-0.233,-0.2332,-0.2341,-0.2319,-0.2317,-0.2346,-0.2345,-0.2306,-0.2301,-0.2297,-0.2336,-0.2274,-0.2272,-0.2271,-0.2299,-0.2301,-0.2303,0,0,0,0,0,0,-0.2285,-0.2291,-0.2334,-0.2314,-0.232,-0.2332,-0.2342,-0.2342,-0.2345,-0.2328,-0.2323,-0.2348,-0.2305,-0.2299,-0.2298,-0.2331,-0.2271,-0.227,-0.2296,-0.2299,-0.2302,-0.2386,0,0,0,0,0,0,-0.2283,-0.229,-0.2293,-0.2314,-0.2321,-0.2352,-0.2342,-0.2343,-0.2353,-0.2352,-0.2328,-0.2322,-0.2304,-0.2301,-0.2296,-0.2328,-0.2268,-0.2294,-0.2298,-0.2301,-0.2381,-0.2391,-0.24,0,0,0,0,0,-0.228,-0.2282,-0.2293,-0.2299,-0.2326,-0.2353,-0.2356,-0.236,-0.2353,-0.2358,-0.2352,-0.2323,-0.2321,-0.2301,-0.2295,-0.2326,-0.2292,-0.2297,-0.2301,-0.2376,-0.2389,-0.24,0,0,0,0,0,0,-0.2249,-0.2283,-0.2294,-0.2305,-0.2332,-0.2352,-0.2352,-0.2362,-0.2362,-0.2355,-0.2337,-0.2331,-0.2346,-0.2325,-0.2304,-0.2348,-0.2305,-0.2309,-0.2365,-0.2377,-0.2387,-0.237,-0.2267,0,0,0,0,0,-0.2247,-0.2256,-0.2295,-0.2302,-0.2315,-0.2336,-0.2345,-0.2355,-0.2363,-0.2362,-0.2353,-0.2349,-0.236,-0.2358,-0.2353,-0.2368,-0.2354,-0.2389,-0.2399,-0.2407,-0.2392,-0.2448,-0.2461,-0.2317,-0.2317,-0.2317,0,0,-0.2235,-0.2255,-0.2259,-0.2296,-0.231,-0.2337,-0.2338,-0.2355,-0.238,-0.2354,-0.2369,-0.2374,-0.2371,-0.2397,-0.2402,-0.2382,-0.2436,-0.2412,-0.2419,-0.2399,-0.2454,-0.2468,-0.248,-0.232,-0.2319,-0.2319,0,0,-0.2219,-0.2236,-0.2243,-0.227,-0.2304,-0.2328,-0.2336,-0.2367,-0.2381,-0.2403,-0.2406,-0.2438,-0.2427,-0.2458,-0.2466,-0.2525,-0.2485,-0.2521,-0.2557,-0.2613,-0.2625,-0.2636,-0.2614,-0.2622,-0.2529,-0.2529,-0.2529,0,-0.2206,-0.2224,-0.2248,-0.227,-0.2294,-0.2326,-0.2351,-0.2376,-0.2404,-0.2429,-0.2411,-0.2466,-0.2462,-0.253,-0.255,-0.2548,-0.2539,-0.2513,-0.2626,-0.2636,-0.2646,-0.2621,-0.2629,-0.2534,-0.2533,-0.2533,-0.2532,0,-0.2202,-0.2222,-0.2227,-0.2271,-0.2301,-0.2323,-0.2376,-0.2406,-0.2427,-0.246,-0.252,-0.2539,-0.2572,-0.2595,-0.2579,-0.2659,-0.2616,-0.2632,-0.2595,-0.2665,-0.2634,-0.2641,-0.254,-0.2539,-0.2537,-0.2536,0,0,-0.2164,-0.2216,-0.2218,-0.2243,-0.2306,-0.233,-0.2385,-0.2452,-0.2487,-0.2534,-0.2583,-0.2641,-0.2656,-0.2667,-0.2685,-0.2732,-0.2786,-0.27,-0.2701,-0.2673,-0.285,-0.2583,-0.2564,-0.2826,-0.2828,-0.283,-0.2794,0,-0.2157,-0.2189,-0.2225,-0.2267,-0.2294,-0.2354,-0.2402,-0.2468,-0.2514,-0.2566,-0.2635,-0.2672,-0.2686,-0.2698,-0.276,-0.2772,-0.281,-0.279,-0.2788,-0.2787,-0.2539,-0.2566,-0.2429,-0.2364,-0.28,-0.2801,-0.2801,0,-0.2147,-0.2173,-0.2205,-0.2275,-0.2293,-0.2324,-0.2411,-0.2458,-0.2553,-0.2587,-0.2664,-0.2695,-0.2772,-0.2767,-0.2851,-0.2832,-0.2838,-0.2852,-0.2852,-0.2572,-0.2532,-0.2369,-0.2359,-0.2254,-0.2811,-0.281,-0.2809,0,-0.2104,-0.2164,-0.2186,-0.2208,-0.2289,-0.232,-0.2368,-0.2461,-0.2499,-0.2592,-0.2609,-0.2725,-0.2736,-0.2817,-0.2805,-0.2844,-0.2849,-0.2921,-0.2693,-0.2673,-0.2533,-0.2494,-0.2413,-0.2985,-0.2985,-0.2985,-0.2985,0,-0.2086,-0.2105,-0.2163,-0.2173,-0.221,-0.2282,-0.2328,-0.2393,-0.2472,-0.2509,-0.2603,-0.2626,-0.2747,-0.2754,-0.2798,-0.2701,-0.2848,-0.2671,-0.2648,-0.255,-0.2515,-0.2396,-0.2439,-0.2983,-0.2984,-0.2984,-0.2984,0,-0.203,-0.2069,-0.2095,-0.2163,-0.2185,-0.2206,-0.228,-0.2316,-0.2388,-0.2433,-0.2453,-0.2538,-0.2535,-0.2588,-0.2659,-0.262,-0.2525,-0.2543,-0.2353,-0.2306,-0.1977,-0.2031,-0.1985,-0.1935,-0.2316,-0.2309,-0.2303,0,-0.2004,-0.2006,-0.2058,-0.207,-0.2095,-0.2137,-0.2169,-0.2261,-0.2297,-0.2369,-0.238,-0.2375,-0.2367,-0.2299,-0.2231,-0.2191,-0.2268,-0.2009,-0.2065,-0.1889,-0.1941,-0.2042,-0.2017,-0.1934,-0.1925,-0.1919,-0.1913,0,-0.1945,-0.1954,-0.1971,-0.1989,-0.2015,-0.2048,-0.2098,-0.2114,-0.2214,-0.2234,-0.2243,-0.2233,-0.2113,-0.1975,-0.1823,-0.1801,-0.1902,-0.1859,-0.1794,-0.1691,-0.1694,-0.1655,-0.1982,-0.1853,-0.1859,-0.1863,-0.1866,-0.1869,-0.1885,-0.1874,-0.1886,-0.1897,-0.1929,-0.1947,-0.1941,-0.2002,-0.2021,-0.2045,-0.2086,-0.202,-0.1832,-0.1593,-0.1483,-0.1175,-0.1437,-0.1182,-0.128,-0.1409,-0.1296,-0.1392,-0.1153,-0.1155,-0.1156,-0.1158,-0.1159,0,-0.1806,-0.1795,-0.1799,-0.1804,-0.1804,-0.185,-0.1883,-0.1865,-0.1851,-0.1874,-0.1862,-0.1667,-0.1397,-0.1195,-0.0827,-0.0666,-0.0745,-0.0645,-0.0835,-0.0855,-0.1017,-0.0922,-0.0478,-0.0478,-0.0478,-0.0478,-0.0478,-0.0479,-0.1759,-0.1721,-0.1715,-0.1673,-0.1681,-0.1645,-0.1642,-0.1628,-0.1621,-0.1539,-0.1459,-0.143,-0.1136,-0.0806,-0.0428,-0.0365,-0.0427,-0.0397,-0.048,-0.0637,-0.0698,-0.0757,-0.0671,-0.0182,-0.0182,-0.0282,-0.0283,-0.0284]},{"header":{"parameterUnit":"m.s-1","parameterCategory":2,"la1":30.2991,"la2":30.254,"lo1":-89.0895,"lo2":-89.0444,"dy":0.0017,"dx":0.0017,"nx":28,"ny":28,"refTime":"2025-06-02T03:00:00:Z","depth":"0","parameterNumber":3,"parameterNumberName":"V-component_of_CURRENTS"},"data":[0,0,0,0,0,0,0,0,0,0,0,0,0,0,0,0,0,0,0,0,0,0,0,0,0,0,0,0,0,0,0,0,0,0,0,0,0,0,0,0,0,0,0,0,0,0,0,0,0,0,0,0,0,0,0,0,0,0,-0.0317,-0.0317,0,-0.0274,-0.0273,-0.0272,-0.0251,-0.0252,-0.0252,-0.0253,-0.0099,-0.0095,-0.009,0,0,0,0,0,0,0,0,0,0,0,0,0,-0.0279,-0.028,-0.0317,-0.0317,-0.0317,-0.0274,-0.0273,-0.0272,-0.0251,-0.0252,-0.0253,-0.0253,-0.0101,-0.0096,-0.009,0,0,0,0,0,0,0,0,0,0,0,0,0,-0.0267,-0.0281,-0.0317,-0.0305,-0.0304,-0.0274,-0.0273,-0.0271,-0.0251,-0.0252,-0.0253,-0.0253,-0.0103,-0.0096,-0.0089,-0.0033,0,0,-0.0069,-0.0066,0,0,0,0,0,0,0,0,-0.0268,-0.0268,-0.0307,-0.0306,-0.0305,-0.0273,-0.0203,-0.0188,-0.0251,-0.0266,-0.0253,-0.0254,-0.015,-0.0139,-0.0124,-0.0026,-0.0019,-0.0068,-0.0064,-0.0061,-0.0059,0,0,0,0,0,0,0,-0.0269,-0.0269,-0.0295,-0.0307,-0.0306,-0.0267,-0.0266,-0.02,-0.0199,-0.0265,-0.0265,-0.0267,-0.0148,-0.0131,-0.012,-0.0017,-0.0068,-0.0062,-0.0058,-0.0055,0.0128,0.0128,0,0,0,0,0,0,-0.0289,-0.0271,-0.0296,-0.0294,-0.0293,-0.0268,-0.0267,-0.0278,-0.0202,-0.0193,-0.0267,-0.0267,-0.0142,-0.0128,-0.0114,-0.006,-0.0061,-0.0055,-0.0051,0.0127,0.0128,0.0129,0,0,0,0,0,0,-0.0289,-0.0292,-0.0298,-0.0284,-0.0283,-0.0269,-0.0281,-0.0277,-0.0263,-0.0205,-0.0194,-0.0258,-0.0142,-0.0124,-0.0066,-0.0053,-0.0052,-0.0045,0.0126,0.0127,0.0128,0.0062,0,0,0,0,0,0,-0.0288,-0.0292,-0.0299,-0.0286,-0.0285,-0.0283,-0.0281,-0.0276,-0.0266,-0.0265,-0.0193,-0.018,-0.0141,-0.0077,-0.006,-0.0043,-0.004,0.0125,0.0127,0.0128,0.0063,0.006,0.0058,0,0,0,0,0,-0.0287,-0.029,-0.0299,-0.0302,-0.0298,-0.0283,-0.0277,-0.0266,-0.0265,-0.0255,-0.0216,-0.0182,-0.0055,-0.0071,-0.0051,-0.0032,0.0124,0.0126,0.0128,0.0064,0.0061,0.0058,0,0,0,0,0,0,-0.0274,-0.0289,-0.0298,-0.0307,-0.03,-0.0282,-0.027,-0.0265,-0.0226,-0.0223,-0.0171,-0.0154,-0.0099,-0.0052,-0.0071,0.0026,0.0041,0.0047,-0.0014,-0.0016,-0.0019,-0.0039,-0.0034,0,0,0,0,0,-0.0278,-0.0288,-0.0292,-0.0298,-0.0297,-0.0284,-0.0275,-0.027,-0.0241,-0.0226,-0.0181,-0.0126,-0.0073,-0.0038,0.0017,0.0076,0.0085,0.0102,0.01,0.0097,0.0096,0.0128,0.0128,0.0134,0.0134,0.0134,0,0,-0.0277,-0.0285,-0.0291,-0.0297,-0.0289,-0.0284,-0.0279,-0.0267,-0.0261,-0.0211,-0.0175,-0.013,-0.006,-0.0007,0.0024,0.0033,0.0092,0.01,0.0097,0.0096,0.013,0.0129,0.0128,0.0136,0.0135,0.0135,0,0,-0.0274,-0.0286,-0.0292,-0.0288,-0.0286,-0.0278,-0.0279,-0.0262,-0.0251,-0.0215,-0.0182,-0.0135,-0.0049,-0.0006,0.003,0.0056,0.0075,0.0079,0.0057,0.0088,0.0087,0.0087,0.005,0.0047,0.0081,0.0081,0.0081,0,-0.0273,-0.0289,-0.0287,-0.0288,-0.0291,-0.028,-0.0284,-0.0264,-0.0231,-0.0221,-0.0211,-0.0107,-0.0048,0.001,0.0014,0.005,0.0045,0.0056,0.0082,0.0082,0.0083,0.0046,0.0043,0.0078,0.0079,0.0079,0.0079,0,-0.0276,-0.0286,-0.0285,-0.0294,-0.0289,-0.0288,-0.0277,-0.0263,-0.0252,-0.0236,-0.0187,-0.0119,-0.0062,-0.0032,0.0001,0.004,0.0023,0.0067,0.0079,0.0077,0.0038,0.0037,0.0074,0.0075,0.0076,0.0077,0,0,-0.0289,-0.0292,-0.0294,-0.0307,-0.0298,-0.0301,-0.0284,-0.0275,-0.0274,-0.023,-0.0224,-0.0131,-0.0109,-0.0067,-0.0019,0.0014,0.0001,0.0036,0.0039,-0.0021,0.0011,0.0019,0.0018,0.0046,0.0046,0.0047,-0.0037,0,-0.0299,-0.0316,-0.0308,-0.0323,-0.0334,-0.0321,-0.0311,-0.0297,-0.0278,-0.0264,-0.0204,-0.0168,-0.0118,-0.0096,-0.0056,-0.0009,0.0002,0.0016,0.004,0.004,0.0033,0.002,0.003,-0.0039,-0.0038,-0.0038,-0.0039,0,-0.0311,-0.0326,-0.0345,-0.036,-0.0363,-0.0363,-0.0366,-0.0355,-0.0324,-0.0308,-0.0267,-0.0227,-0.018,-0.0131,-0.0072,-0.0071,-0.0037,-0.0004,-0.0005,0.003,0.0047,-0.0024,-0.0042,0.013,-0.0041,-0.0041,-0.0041,0,-0.034,-0.0354,-0.0379,-0.0382,-0.0387,-0.0391,-0.0392,-0.0369,-0.0368,-0.0339,-0.0339,-0.0278,-0.0257,-0.0193,-0.0132,-0.0103,-0.0088,-0.0035,-0.0007,-0.001,0.0021,0.0021,0.0162,0.0008,0.0008,0.0008,0.0008,0,-0.0361,-0.0378,-0.0397,-0.041,-0.044,-0.0428,-0.0445,-0.0431,-0.0417,-0.0425,-0.0367,-0.0367,-0.0265,-0.0242,-0.0175,-0.0121,-0.0125,-0.0026,-0.0017,-0.0007,-0.0007,0.0164,0.0234,0.0005,0.0006,0.0006,0.0007,0,-0.0375,-0.0389,-0.042,-0.0442,-0.0453,-0.0472,-0.0486,-0.0495,-0.0478,-0.0489,-0.0485,-0.0447,-0.0421,-0.0348,-0.0268,-0.0185,-0.0052,-0.0101,-0.0135,-0.0125,0.0095,0.0159,0.0217,0.0293,-0.0082,-0.0082,-0.0082,0,-0.0377,-0.0397,-0.0448,-0.0474,-0.0482,-0.0511,-0.0528,-0.0524,-0.0535,-0.0541,-0.0555,-0.0539,-0.054,-0.0455,-0.0319,-0.0236,-0.0086,-0.0135,-0.004,0.0102,0.018,0.0195,0.0256,-0.0061,-0.0061,-0.0061,-0.0061,0,-0.0379,-0.0403,-0.0433,-0.0493,-0.0526,-0.0562,-0.0589,-0.0613,-0.0613,-0.0638,-0.0669,-0.0678,-0.0602,-0.052,-0.039,-0.0284,-0.0019,-0.0128,0.0053,0.0235,0.0227,0.0305,-0.005,-0.006,-0.006,-0.006,-0.006,-0.006,-0.0377,-0.0406,-0.0455,-0.0506,-0.055,-0.0597,-0.0629,-0.0671,-0.0715,-0.0765,-0.0768,-0.0806,-0.0653,-0.0476,-0.0336,0.0007,-0.0017,0.0147,0.0207,0.0204,0.0317,-0.0066,-0.0066,-0.0066,-0.0066,-0.0066,-0.0066,0,-0.0375,-0.0413,-0.0461,-0.0527,-0.0571,-0.0594,-0.0655,-0.0694,-0.0766,-0.0841,-0.0888,-0.0804,-0.0613,-0.0363,0.0054,0.0309,0.0386,0.0465,0.0527,0.0575,0.027,0.032,0.0367,0.0367,0.0366,0.0366,0.0366,0.0366,-0.0377,-0.0425,-0.0455,-0.0525,-0.0568,-0.0631,-0.0669,-0.0743,-0.0807,-0.0883,-0.0895,-0.0863,-0.0371,0.0114,0.0603,0.0693,0.0896,0.0853,0.0969,0.0823,0.08,0.0778,0.0848,0.1004,0.1005,0.1256,0.1259,0.1261]}],[{"header":{"parameterUnit":"m.s-1","parameterCategory":2,"la1":30.2991,"la2":30.254,"lo1":-89.0895,"lo2":-89.0444,"dy":0.0017,"dx":0.0017,"nx":28,"ny":28,"refTime":"2025-06-02T03:00:00:Z","depth":"2","parameterNumber":2,"parameterNumberName":"U-component_of_CURRENTS"},"data":[0,0,0,0,0,0,0,0,0,0,0,0,0,0,0,0,0,0,0,0,0,0,0,0,0,0,0,0,0,0,0,0,0,0,0,0,0,0,0,0,0,0,0,0,0,0,0,0,0,0,0,0,0,0,0,0,0,0,-0.1456,-0.1456,0,-0.139,-0.1389,-0.1388,-0.138,-0.1381,-0.1382,-0.1383,-0.1284,-0.1281,-0.1277,0,0,0,0,0,0,0,0,0,0,0,0,0,-0.1559,-0.1557,-0.1457,-0.1456,-0.1455,-0.139,-0.1389,-0.1388,-0.138,-0.1381,-0.1382,-0.1383,-0.1285,-0.1281,-0.1277,0,0,0,0,0,0,0,0,0,0,0,0,0,-0.1504,-0.1557,-0.1457,-0.1445,-0.1443,-0.139,-0.1389,-0.1387,-0.138,-0.1381,-0.1382,-0.1383,-0.1286,-0.1281,-0.1276,-0.1219,0,0,-0.1261,-0.1258,0,0,0,0,0,0,0,0,-0.1507,-0.15,-0.1447,-0.1446,-0.1444,-0.1396,-0.1389,-0.133,-0.1379,-0.1402,-0.1383,-0.1384,-0.1319,-0.1311,-0.1293,-0.1215,-0.1211,-0.126,-0.1257,-0.1255,-0.1253,0,0,0,0,0,0,0,-0.1511,-0.1503,-0.1428,-0.1447,-0.1444,-0.1437,-0.143,-0.1378,-0.1352,-0.14,-0.14,-0.1395,-0.1318,-0.1298,-0.1291,-0.1209,-0.126,-0.1256,-0.1253,-0.1251,-0.1171,-0.1172,0,0,0,0,0,0,-0.1522,-0.1506,-0.143,-0.1426,-0.1481,-0.1434,-0.1427,-0.1409,-0.1353,-0.1347,-0.1394,-0.1395,-0.1306,-0.1297,-0.1287,-0.1308,-0.1255,-0.125,-0.1247,-0.117,-0.1171,-0.1172,0,0,0,0,0,0,-0.1524,-0.1515,-0.1433,-0.1467,-0.1457,-0.1431,-0.1411,-0.1407,-0.1398,-0.1349,-0.1342,-0.1392,-0.1307,-0.1295,-0.1269,-0.13,-0.1248,-0.1243,-0.1169,-0.117,-0.1172,-0.1289,0,0,0,0,0,0,-0.1527,-0.1516,-0.1504,-0.1467,-0.1455,-0.1417,-0.141,-0.1404,-0.1393,-0.1394,-0.1344,-0.1336,-0.1307,-0.1277,-0.1264,-0.1292,-0.1239,-0.1168,-0.1169,-0.1171,-0.1284,-0.1295,-0.1303,0,0,0,0,0,-0.1531,-0.1509,-0.1504,-0.1495,-0.144,-0.1417,-0.141,-0.1395,-0.1392,-0.1391,-0.1369,-0.1338,-0.1279,-0.1273,-0.1257,-0.1286,-0.1167,-0.1169,-0.1171,-0.128,-0.1293,-0.1303,0,0,0,0,0,0,-0.1543,-0.1505,-0.1499,-0.1466,-0.1452,-0.1417,-0.1405,-0.1397,-0.1376,-0.1376,-0.1337,-0.1327,-0.1316,-0.1278,-0.1272,-0.1268,-0.1222,-0.1221,-0.131,-0.1321,-0.1331,-0.1319,-0.1235,0,0,0,0,0,-0.1541,-0.1516,-0.149,-0.1465,-0.1458,-0.1433,-0.142,-0.1414,-0.139,-0.1382,-0.1355,-0.1327,-0.1307,-0.1299,-0.1262,-0.125,-0.1233,-0.1261,-0.1271,-0.128,-0.126,-0.1289,-0.13,-0.1179,-0.1179,-0.1179,0,0,-0.1537,-0.1514,-0.1499,-0.1467,-0.1449,-0.1441,-0.1428,-0.1413,-0.1416,-0.1371,-0.1364,-0.1346,-0.1308,-0.1308,-0.1301,-0.1286,-0.1309,-0.1282,-0.129,-0.1265,-0.1292,-0.1304,-0.1315,-0.1181,-0.118,-0.118,0,0,-0.1521,-0.15,-0.1478,-0.1471,-0.1453,-0.1445,-0.1446,-0.1423,-0.1425,-0.1417,-0.1398,-0.1404,-0.1358,-0.1358,-0.1348,-0.1381,-0.1352,-0.1374,-0.1422,-0.1453,-0.1463,-0.1472,-0.149,-0.15,-0.1391,-0.1391,-0.1391,0,-0.1522,-0.149,-0.1472,-0.1458,-0.1458,-0.1451,-0.1447,-0.1444,-0.1422,-0.143,-0.143,-0.1409,-0.1385,-0.1401,-0.1424,-0.1404,-0.1409,-0.1389,-0.1468,-0.1476,-0.1483,-0.1499,-0.1508,-0.1397,-0.1396,-0.1396,-0.1395,0,-0.1493,-0.1478,-0.1468,-0.1454,-0.1454,-0.1449,-0.1453,-0.146,-0.147,-0.1473,-0.1492,-0.148,-0.1471,-0.1484,-0.1461,-0.1505,-0.1489,-0.1474,-0.1445,-0.1503,-0.1515,-0.1523,-0.1405,-0.1403,-0.1401,-0.14,0,0,-0.1472,-0.1452,-0.1451,-0.1452,-0.1456,-0.1451,-0.1472,-0.1487,-0.1499,-0.1519,-0.1539,-0.1552,-0.1555,-0.1542,-0.1538,-0.1573,-0.1645,-0.1551,-0.155,-0.1578,-0.171,-0.1518,-0.1507,-0.1655,-0.1657,-0.1658,-0.1709,0,-0.1461,-0.1439,-0.1439,-0.1442,-0.1437,-0.1458,-0.1476,-0.1496,-0.1516,-0.1534,-0.1566,-0.1573,-0.1577,-0.1584,-0.1625,-0.1617,-0.1664,-0.1631,-0.1637,-0.1637,-0.1468,-0.1508,-0.1358,-0.1373,-0.1715,-0.1716,-0.1717,0,-0.1434,-0.1427,-0.142,-0.1439,-0.1441,-0.145,-0.1486,-0.1501,-0.1537,-0.1556,-0.1593,-0.1596,-0.1642,-0.1637,-0.1698,-0.1679,-0.1699,-0.1711,-0.1714,-0.1486,-0.1456,-0.1363,-0.1372,-0.1729,-0.1728,-0.1727,-0.1726,0,-0.1419,-0.1419,-0.1416,-0.142,-0.1437,-0.1453,-0.1474,-0.1508,-0.1514,-0.1566,-0.1563,-0.1633,-0.1627,-0.1697,-0.1683,-0.1716,-0.1721,-0.1775,-0.1633,-0.1621,-0.146,-0.1429,-0.183,-0.183,-0.183,-0.183,-0.1829,0,-0.1405,-0.1401,-0.1408,-0.1404,-0.141,-0.1442,-0.1453,-0.1485,-0.1512,-0.151,-0.1565,-0.1549,-0.1638,-0.1631,-0.1685,-0.163,-0.1726,-0.1626,-0.1613,-0.1495,-0.1468,-0.1738,-0.1726,-0.1831,-0.1831,-0.1831,-0.183,0,-0.1376,-0.138,-0.1368,-0.1387,-0.1394,-0.1397,-0.1416,-0.1426,-0.1458,-0.1451,-0.1464,-0.1481,-0.1473,-0.1511,-0.1575,-0.1571,-0.1585,-0.1544,-0.1373,-0.1337,-0.1493,-0.1488,-0.1463,-0.1457,-0.1451,-0.1447,-0.1443,0,-0.1355,-0.1344,-0.1339,-0.1331,-0.1335,-0.1346,-0.1353,-0.1394,-0.1398,-0.1392,-0.138,-0.1349,-0.1316,-0.1288,-0.1271,-0.1299,-0.1405,-0.1157,-0.1187,-0.1461,-0.1453,-0.1456,-0.1458,-0.1061,-0.1054,-0.1049,-0.1044,0,-0.1314,-0.1305,-0.1293,-0.1273,-0.1271,-0.1269,-0.1285,-0.1279,-0.1319,-0.1303,-0.1268,-0.1238,-0.1139,-0.1048,-0.0983,-0.0986,-0.1145,-0.1042,-0.1384,-0.1133,-0.1073,-0.1067,-0.1085,-0.0996,-0.1,-0.1004,-0.1007,-0.1009,-0.1271,-0.1243,-0.1222,-0.1201,-0.1202,-0.1199,-0.119,-0.1208,-0.1195,-0.1178,-0.1161,-0.1076,-0.0986,-0.0834,-0.076,-0.0683,-0.0808,-0.0805,-0.0828,-0.0855,-0.0755,-0.0683,-0.0516,-0.0518,-0.052,-0.0521,-0.0523,0,-0.1194,-0.1172,-0.1157,-0.1127,-0.1117,-0.1134,-0.1143,-0.1128,-0.1105,-0.11,-0.1059,-0.0831,-0.0708,-0.0637,-0.0453,-0.0394,-0.0456,-0.036,-0.0471,-0.0514,-0.0554,-0.0447,-0.0123,-0.0122,-0.0122,-0.0122,0,0,-0.1144,-0.1091,-0.1081,-0.1041,-0.1039,-0.101,-0.1009,-0.0995,-0.0992,-0.0898,-0.0831,-0.0845,-0.0714,-0.0519,-0.038,-0.0256,-0.0424,-0.0216,-0.0524,-0.0707,-0.075,-0.0766,-0.0639,0,0,0,0,0]},{"header":{"parameterUnit":"m.s-1","parameterCategory":2,"la1":30.2991,"la2":30.254,"lo1":-89.0895,"lo2":-89.0444,"dy":0.0017,"dx":0.0017,"nx":28,"ny":28,"refTime":"2025-06-02T03:00:00:Z","depth":"2","parameterNumber":3,"parameterNumberName":"V-component_of_CURRENTS"},"data":[0,0,0,0,0,0,0,0,0,0,0,0,0,0,0,0,0,0,0,0,0,0,0,0,0,0,0,0,0,0,0,0,0,0,0,0,0,0,0,0,0,0,0,0,0,0,0,0,0,0,0,0,0,0,0,0,0,0,-0.0146,-0.0146,0,-0.0058,-0.0057,-0.0056,-0.005,-0.0051,-0.0053,-0.0054,0.0057,0.006,0.0064,0,0,0,0,0,0,0,0,0,0,0,0,0,-0.0232,-0.0231,-0.0147,-0.0146,-0.0144,-0.0058,-0.0057,-0.0056,-0.005,-0.0051,-0.0053,-0.0054,0.0055,0.006,0.0065,0,0,0,0,0,0,0,0,0,0,0,0,0,-0.0174,-0.0231,-0.0147,-0.0132,-0.013,-0.0058,-0.0057,-0.0055,-0.005,-0.0052,-0.0053,-0.0055,0.0054,0.0059,0.0065,0.0135,0,0,0.0083,0.0086,0,0,0,0,0,0,0,0,-0.0177,-0.017,-0.0135,-0.0133,-0.0131,-0.0068,-0.0047,0.0009,-0.0049,-0.0079,-0.0054,-0.0056,0.0018,0.0026,0.0048,0.014,0.0145,0.0084,0.0088,0.009,0.0092,0,0,0,0,0,0,0,-0.0181,-0.0174,-0.011,-0.0134,-0.0131,-0.0103,-0.0097,-0.0036,-0.0021,-0.0077,-0.0076,-0.0068,0.0019,0.0042,0.005,0.0146,0.0084,0.0089,0.0093,0.0095,0.032,0.0323,0,0,0,0,0,0,-0.0196,-0.0178,-0.0113,-0.0108,-0.016,-0.0101,-0.0094,-0.0085,-0.0023,-0.0015,-0.0066,-0.0068,0.0033,0.0044,0.0054,0.0113,0.009,0.0096,0.0099,0.0318,0.0321,0.0323,0,0,0,0,0,0,-0.0198,-0.0191,-0.0117,-0.0142,-0.0131,-0.0098,-0.0088,-0.0083,-0.0086,-0.0015,-0.0007,-0.0079,0.0032,0.0046,0.0098,0.0118,0.0098,0.0104,0.0315,0.0319,0.0322,0.0248,0,0,0,0,0,0,-0.0201,-0.0192,-0.0201,-0.0143,-0.013,-0.0096,-0.0086,-0.008,-0.0077,-0.0079,-0.0022,-0.0012,0.0032,0.0088,0.0103,0.0126,0.0108,0.0312,0.0317,0.0321,0.0248,0.0249,0.025,0,0,0,0,0,-0.0204,-0.0209,-0.0202,-0.0195,-0.014,-0.0096,-0.0087,-0.0068,-0.0077,-0.0078,-0.0033,-0.0015,0.0129,0.0094,0.0112,0.0136,0.031,0.0315,0.0321,0.0247,0.0249,0.025,0,0,0,0,0,0,-0.0249,-0.0206,-0.0199,-0.019,-0.0157,-0.0096,-0.0097,-0.0082,-0.0047,-0.0058,0.0003,0.0018,0.0076,0.0126,0.0086,0.0223,0.0229,0.0238,0.0167,0.0169,0.017,0.0137,0.0113,0,0,0,0,0,-0.0262,-0.0258,-0.0208,-0.0204,-0.0193,-0.015,-0.0135,-0.0122,-0.0079,-0.0068,-0.0027,0.004,0.0122,0.0153,0.0222,0.0286,0.0311,0.0323,0.0324,0.0324,0.0314,0.0399,0.0405,0.0341,0.0341,0.0341,0,0,-0.0276,-0.0254,-0.0252,-0.0214,-0.019,-0.0167,-0.0146,-0.0135,-0.0113,-0.0057,-0.0029,0.0035,0.0141,0.0213,0.0246,0.0248,0.0348,0.0331,0.033,0.032,0.0405,0.041,0.0415,0.0345,0.0344,0.0344,0,0,-0.0298,-0.0287,-0.0291,-0.0266,-0.0238,-0.0202,-0.0207,-0.0163,-0.0147,-0.0101,-0.004,0.0033,0.0128,0.0219,0.0281,0.0338,0.0349,0.036,0.0335,0.0417,0.0421,0.0426,0.0414,0.0418,0.0362,0.0361,0.0361,0,-0.032,-0.0313,-0.0285,-0.0278,-0.0261,-0.0224,-0.0216,-0.0178,-0.0125,-0.01,-0.0106,0.0066,0.0144,0.0272,0.0291,0.0338,0.0343,0.0309,0.0413,0.0418,0.0424,0.0411,0.0416,0.0359,0.0359,0.0359,0.0359,0,-0.0336,-0.0334,-0.0334,-0.031,-0.0287,-0.0277,-0.0221,-0.0204,-0.0184,-0.0138,-0.0049,0.0059,0.016,0.0213,0.0266,0.0365,0.0337,0.0395,0.039,0.0424,0.041,0.0416,0.0354,0.0355,0.0356,0.0357,0,0,-0.0367,-0.0351,-0.0351,-0.0348,-0.0307,-0.0286,-0.0251,-0.0193,-0.0172,-0.0112,-0.0069,0.009,0.0122,0.0196,0.0281,0.0354,0.0392,0.0372,0.0378,0.0323,0.0487,0.04,0.0399,0.0452,0.0454,0.0456,0.0438,0,-0.0387,-0.0393,-0.037,-0.0361,-0.0355,-0.0309,-0.0274,-0.0221,-0.0175,-0.0127,-0.0009,0.0067,0.0127,0.0167,0.0252,0.0366,0.0414,0.0386,0.0494,0.0495,0.0387,0.0408,0.046,0.0445,0.0445,0.0446,0.0447,0,-0.0405,-0.0406,-0.0416,-0.0389,-0.0382,-0.037,-0.0318,-0.0281,-0.0194,-0.0161,-0.0078,-0.0004,0.0118,0.0162,0.0334,0.0299,0.0377,0.0454,0.0457,0.0409,0.0424,0.0428,0.0457,0.0459,0.0458,0.0457,0.0456,0,-0.0439,-0.043,-0.0445,-0.0436,-0.04,-0.0398,-0.0374,-0.0303,-0.0267,-0.0192,-0.0171,-0.0033,0.0028,0.0162,0.0288,0.0314,0.0437,0.0512,0.05,0.0491,0.0575,0.057,0.0631,0.0631,0.0631,0.0631,0.0631,0,-0.0461,-0.0467,-0.0472,-0.0477,-0.0482,-0.0448,-0.0434,-0.0393,-0.0332,-0.0292,-0.0203,-0.0154,0.0033,0.0121,0.0248,0.0349,0.0407,0.0477,0.0497,0.0545,0.0538,0.0602,0.0598,0.0631,0.0631,0.0631,0.0631,0,-0.0489,-0.0494,-0.0507,-0.0502,-0.0503,-0.0511,-0.0481,-0.0459,-0.0415,-0.0368,-0.035,-0.0242,-0.0145,-0.0002,0.0194,0.0282,0.0409,0.0434,0.0411,0.0428,0.0411,0.0405,0.0432,0.0429,0.0427,0.0425,0.0423,0,-0.0501,-0.0518,-0.0538,-0.0551,-0.0557,-0.0561,-0.0553,-0.0506,-0.0478,-0.0415,-0.0393,-0.0318,-0.0256,-0.0081,0.0108,0.0259,0.0314,0.0369,0.0467,0.0381,0.0398,0.0396,0.0393,0.0536,0.0535,0.0534,0.0534,0,-0.0518,-0.0537,-0.055,-0.0587,-0.0601,-0.0597,-0.059,-0.0582,-0.0523,-0.0507,-0.0474,-0.0437,-0.0276,-0.0079,0.0076,0.0185,0.0347,0.0358,0.0334,0.0554,0.0473,0.049,0.0487,0.0529,0.053,0.053,0.053,0.0531,-0.0528,-0.0548,-0.0579,-0.0608,-0.0626,-0.0634,-0.0646,-0.0632,-0.0624,-0.0589,-0.0541,-0.0412,-0.0245,0.0043,0.0129,0.0262,0.0289,0.0392,0.0399,0.0405,0.0396,0.0314,0.0333,0.0333,0.0332,0.0332,0.0331,0,-0.0525,-0.0552,-0.0587,-0.0623,-0.0655,-0.0657,-0.0662,-0.068,-0.0702,-0.0594,-0.0575,-0.0309,-0.0104,0.0092,0.0322,0.0372,0.0413,0.0368,0.0472,0.0476,0.048,0.048,0.0437,0.0437,0.0437,0.0437,0,0,-0.0522,-0.0553,-0.0576,-0.0637,-0.0672,-0.0723,-0.0741,-0.0773,-0.0703,-0.0624,-0.0429,-0.0282,0.0009,0.0182,0.0254,0.0378,0.0383,0.0357,0.0276,0.039,0.0392,0.0508,0.0511,0,0,0,0,0]}],[{"header":{"parameterUnit":"m.s-1","parameterCategory":2,"la1":30.2991,"la2":30.254,"lo1":-89.0895,"lo2":-89.0444,"dy":0.0017,"dx":0.0017,"nx":28,"ny":28,"refTime":"2025-06-02T03:00:00:Z","depth":"4","parameterNumber":2,"parameterNumberName":"U-component_of_CURRENTS"},"data":[0,0,0,0,0,0,0,0,0,0,0,0,0,0,0,0,0,0,0,0,0,0,0,0,0,0,0,0,0,0,0,0,0,0,0,0,0,0,0,0,0,0,0,0,0,0,0,0,0,0,0,0,0,0,0,0,0,0,-0.0624,-0.0625,0,-0.0683,-0.0683,-0.0684,-0.071,-0.071,-0.071,-0.071,-0.076,-0.0761,-0.0762,0,0,0,0,0,0,0,0,0,0,0,0,0,-0.0586,-0.0586,-0.0624,-0.0625,-0.0626,-0.0683,-0.0683,-0.0684,-0.071,-0.071,-0.071,-0.071,-0.0759,-0.0761,-0.0762,0,0,0,0,0,0,0,0,0,0,0,0,0,-0.0617,-0.0586,-0.0624,-0.0648,-0.0651,-0.0683,-0.0683,-0.0684,-0.071,-0.071,-0.071,-0.0711,-0.0759,-0.0761,-0.0762,-0.0769,0,0,-0.0768,-0.0768,0,0,0,0,0,0,0,0,-0.0615,-0.0618,-0.0643,-0.0646,-0.0649,-0.0691,-0.0688,-0.0713,-0.071,-0.0685,-0.071,-0.0711,-0.0737,-0.0741,-0.0748,-0.0771,-0.0773,-0.0768,-0.0769,-0.077,-0.077,0,0,0,0,0,0,0,-0.0612,-0.0616,-0.0645,-0.0644,-0.0648,-0.0673,-0.0677,-0.0693,-0.0707,-0.0687,-0.069,-0.07,-0.0739,-0.0746,-0.0749,-0.0774,-0.0768,-0.0769,-0.077,-0.0771,-0.0837,-0.0837,0,0,0,0,0,0,-0.0607,-0.0613,-0.0643,-0.0647,-0.0635,-0.0673,-0.0678,-0.0676,-0.0707,-0.0713,-0.07,-0.0701,-0.0743,-0.0747,-0.0751,-0.0804,-0.077,-0.0771,-0.0772,-0.0836,-0.0837,-0.0837,0,0,0,0,0,0,-0.0606,-0.0609,-0.0641,-0.0634,-0.064,-0.0674,-0.0671,-0.0677,-0.07,-0.0717,-0.0723,-0.072,-0.0744,-0.0749,-0.0769,-0.0804,-0.0772,-0.0774,-0.0835,-0.0836,-0.0837,-0.0881,0,0,0,0,0,0,-0.0604,-0.0607,-0.0613,-0.0633,-0.0641,-0.0662,-0.0672,-0.0678,-0.0707,-0.0709,-0.0736,-0.074,-0.0744,-0.0766,-0.0771,-0.0806,-0.0775,-0.0834,-0.0836,-0.0837,-0.0879,-0.0884,-0.0888,0,0,0,0,0,-0.0602,-0.0614,-0.0612,-0.0617,-0.0643,-0.0662,-0.0668,-0.0691,-0.0708,-0.0714,-0.0732,-0.074,-0.0778,-0.0768,-0.0773,-0.081,-0.0834,-0.0835,-0.0837,-0.0877,-0.0883,-0.0888,0,0,0,0,0,0,-0.0605,-0.0618,-0.0617,-0.0632,-0.0644,-0.0668,-0.069,-0.0701,-0.0722,-0.0734,-0.0744,-0.0749,-0.0783,-0.0784,-0.0772,-0.0831,-0.081,-0.0812,-0.0839,-0.0844,-0.0848,-0.0845,-0.0776,0,0,0,0,0,-0.0605,-0.0613,-0.0625,-0.0637,-0.0648,-0.067,-0.0686,-0.07,-0.0719,-0.073,-0.0742,-0.0764,-0.0791,-0.0806,-0.082,-0.085,-0.0846,-0.0877,-0.0881,-0.0885,-0.0885,-0.0906,-0.0913,-0.0842,-0.0842,-0.0842,0,0,-0.0609,-0.0619,-0.0624,-0.0638,-0.0656,-0.0673,-0.0681,-0.0711,-0.073,-0.0732,-0.0763,-0.0779,-0.08,-0.0834,-0.085,-0.0841,-0.0902,-0.0887,-0.089,-0.0888,-0.0909,-0.0916,-0.0922,-0.0844,-0.0843,-0.0843,0,0,-0.0618,-0.0632,-0.0638,-0.0651,-0.0677,-0.0693,-0.0703,-0.0727,-0.0745,-0.0775,-0.0784,-0.0816,-0.085,-0.0869,-0.0888,-0.0924,-0.0923,-0.0934,-0.0959,-0.0981,-0.0987,-0.0992,-0.0991,-0.0995,-0.0938,-0.0939,-0.0939,0,-0.0624,-0.0629,-0.0644,-0.0656,-0.0673,-0.0702,-0.0715,-0.0742,-0.0766,-0.0786,-0.0791,-0.0856,-0.0872,-0.0923,-0.0934,-0.0938,-0.0936,-0.0941,-0.0987,-0.0992,-0.0997,-0.0994,-0.0999,-0.0941,-0.0941,-0.094,-0.094,0,-0.0629,-0.0642,-0.0655,-0.0673,-0.0691,-0.0715,-0.0745,-0.0767,-0.0801,-0.083,-0.0885,-0.0908,-0.0944,-0.0963,-0.0964,-0.101,-0.0992,-0.099,-0.0975,-0.1007,-0.1002,-0.1006,-0.0944,-0.0943,-0.0943,-0.0942,0,0,-0.0625,-0.065,-0.0658,-0.0663,-0.0704,-0.0717,-0.0758,-0.0799,-0.0837,-0.088,-0.0923,-0.0982,-0.1,-0.1019,-0.1028,-0.105,-0.1082,-0.1033,-0.1033,-0.1033,-0.1112,-0.1011,-0.1006,-0.1088,-0.1089,-0.109,-0.1093,0,-0.0625,-0.0639,-0.0657,-0.0682,-0.0692,-0.073,-0.0764,-0.0809,-0.086,-0.0908,-0.0965,-0.1012,-0.1023,-0.1041,-0.1071,-0.1076,-0.1095,-0.108,-0.1079,-0.1079,-0.0987,-0.1008,-0.1094,-0.1096,-0.1097,-0.1098,-0.1098,0,-0.0623,-0.0632,-0.0647,-0.0677,-0.0689,-0.0712,-0.0771,-0.0804,-0.0887,-0.0929,-0.0995,-0.1033,-0.1083,-0.108,-0.1126,-0.1114,-0.1116,-0.112,-0.1121,-0.1013,-0.0986,-0.1059,-0.1106,-0.1105,-0.1105,-0.1104,-0.1104,0,-0.06,-0.0628,-0.0638,-0.0649,-0.0692,-0.071,-0.0739,-0.0813,-0.0852,-0.0936,-0.0974,-0.1051,-0.1076,-0.111,-0.1125,-0.1127,-0.1158,-0.1162,-0.1076,-0.1069,-0.114,-0.1134,-0.1191,-0.1191,-0.1191,-0.1191,-0.1191,0,-0.059,-0.0602,-0.0628,-0.0636,-0.0656,-0.0692,-0.0735,-0.0779,-0.0855,-0.0904,-0.0977,-0.1011,-0.1083,-0.1111,-0.113,-0.1105,-0.1165,-0.1077,-0.1065,-0.1156,-0.1153,-0.1142,-0.1136,-0.1192,-0.1192,-0.1191,-0.1191,0,-0.0567,-0.0586,-0.0597,-0.0634,-0.0643,-0.0657,-0.0713,-0.0754,-0.0822,-0.0879,-0.0902,-0.0983,-0.0997,-0.105,-0.1088,-0.1085,-0.1088,-0.1064,-0.1144,-0.1137,-0.0985,-0.0982,-0.0973,-0.0969,-0.0966,-0.0964,-0.0962,0,-0.0554,-0.0558,-0.0584,-0.0585,-0.0603,-0.0629,-0.0656,-0.0729,-0.077,-0.085,-0.0871,-0.0903,-0.0944,-0.0916,-0.0977,-0.0995,-0.099,-0.1,-0.1009,-0.0974,-0.0964,-0.0966,-0.0966,-0.0957,-0.0956,-0.0955,-0.0955,0,-0.0531,-0.0547,-0.0556,-0.0556,-0.0574,-0.0594,-0.063,-0.0651,-0.0736,-0.0799,-0.0807,-0.082,-0.082,-0.0844,-0.085,-0.0874,-0.1005,-0.097,-0.0976,-0.0984,-0.0955,-0.0949,-0.0953,-0.0944,-0.0946,-0.0947,-0.0947,0,-0.0516,-0.0513,-0.0524,-0.0522,-0.0539,-0.0551,-0.0574,-0.0602,-0.0642,-0.0727,-0.0718,-0.0751,-0.0792,-0.0779,-0.0797,-0.0795,-0.0794,-0.0806,-0.0821,-0.0833,-0.0788,-0.0731,-0.0638,0,0,0,0,0,-0.0495,-0.0489,-0.0486,-0.0482,-0.05,-0.051,-0.056,-0.0594,-0.0663,-0.0642,-0.0678,-0.0671,-0.0672,-0.0695,-0.0664,-0.0751,-0.0809,-0.0716,-0.0834,-0.0888,-0.0899,-0.0861,0,0,0,0,0,0,-0.0477,-0.0479,-0.0476,-0.0456,-0.0444,-0.0467,-0.0495,-0.054,-0.053,-0.059,-0.058,-0.0633,-0.0631,-0.0661,-0.0645,-0.0655,-0.072,-0.0741,-0.074,-0.0881,-0.0892,-0.0901,-0.0866,0,0,0,0,0]},{"header":{"parameterUnit":"m.s-1","parameterCategory":2,"la1":30.2991,"la2":30.254,"lo1":-89.0895,"lo2":-89.0444,"dy":0.0017,"dx":0.0017,"nx":28,"ny":28,"refTime":"2025-06-02T03:00:00:Z","depth":"4","parameterNumber":3,"parameterNumberName":"V-component_of_CURRENTS"},"data":[0,0,0,0,0,0,0,0,0,0,0,0,0,0,0,0,0,0,0,0,0,0,0,0,0,0,0,0,0,0,0,0,0,0,0,0,0,0,0,0,0,0,0,0,0,0,0,0,0,0,0,0,0,0,0,0,0,0,-0.0354,-0.0354,0,-0.0314,-0.0314,-0.0313,-0.0277,-0.0277,-0.0276,-0.0276,-0.0229,-0.0229,-0.0228,0,0,0,0,0,0,0,0,0,0,0,0,0,-0.037,-0.037,-0.0354,-0.0354,-0.0353,-0.0315,-0.0314,-0.0313,-0.0277,-0.0277,-0.0276,-0.0276,-0.023,-0.0229,-0.0228,0,0,0,0,0,0,0,0,0,0,0,0,0,-0.035,-0.037,-0.0354,-0.0331,-0.0329,-0.0315,-0.0314,-0.0313,-0.0277,-0.0277,-0.0276,-0.0276,-0.023,-0.0229,-0.0227,-0.023,0,0,-0.0223,-0.0223,0,0,0,0,0,0,0,0,-0.0351,-0.0349,-0.0335,-0.0333,-0.033,-0.0301,-0.0303,-0.0285,-0.0277,-0.0296,-0.0276,-0.0275,-0.0254,-0.025,-0.0243,-0.0228,-0.0226,-0.0223,-0.0222,-0.0222,-0.0221,0,0,0,0,0,0,0,-0.0352,-0.035,-0.0338,-0.0335,-0.0332,-0.0313,-0.031,-0.0299,-0.0278,-0.0294,-0.0292,-0.0289,-0.0252,-0.0244,-0.0242,-0.0225,-0.0223,-0.0222,-0.0221,-0.0221,-0.0217,-0.0218,0,0,0,0,0,0,-0.0361,-0.0352,-0.0339,-0.0336,-0.034,-0.0314,-0.031,-0.031,-0.0278,-0.0273,-0.0289,-0.0287,-0.0247,-0.0243,-0.024,-0.0247,-0.0222,-0.0221,-0.022,-0.0217,-0.0218,-0.0218,0,0,0,0,0,0,-0.0362,-0.0361,-0.034,-0.0344,-0.034,-0.0314,-0.0315,-0.031,-0.0305,-0.0274,-0.0269,-0.029,-0.0246,-0.0242,-0.0238,-0.0245,-0.022,-0.0219,-0.0216,-0.0217,-0.0218,-0.0258,0,0,0,0,0,0,-0.0362,-0.0361,-0.0365,-0.0344,-0.034,-0.0339,-0.0315,-0.0309,-0.0304,-0.0301,-0.0273,-0.0268,-0.0246,-0.024,-0.0237,-0.0243,-0.0218,-0.0215,-0.0216,-0.0218,-0.0256,-0.0261,-0.0265,0,0,0,0,0,-0.0363,-0.037,-0.0365,-0.0363,-0.0346,-0.0339,-0.0336,-0.0314,-0.0305,-0.0307,-0.029,-0.0269,-0.0246,-0.024,-0.0235,-0.0241,-0.0214,-0.0216,-0.0218,-0.0254,-0.026,-0.0265,0,0,0,0,0,0,-0.0379,-0.0367,-0.0361,-0.0364,-0.0356,-0.0334,-0.0333,-0.0322,-0.031,-0.0307,-0.0279,-0.0273,-0.0271,-0.0255,-0.0249,-0.0245,-0.0227,-0.0227,-0.0256,-0.0261,-0.0265,-0.0264,-0.0217,0,0,0,0,0,-0.0386,-0.0388,-0.0375,-0.0379,-0.0377,-0.0358,-0.0353,-0.0341,-0.0327,-0.0321,-0.0306,-0.0289,-0.0275,-0.0268,-0.0255,-0.0255,-0.0218,-0.0256,-0.0261,-0.0264,-0.0261,-0.0201,-0.0198,-0.0224,-0.0224,-0.0224,0,0,-0.0395,-0.0387,-0.039,-0.0382,-0.0374,-0.0381,-0.0353,-0.0351,-0.0356,-0.0319,-0.0325,-0.0305,-0.0279,-0.0277,-0.0275,-0.0264,-0.0243,-0.0266,-0.0269,-0.0264,-0.0202,-0.0199,-0.0197,-0.0225,-0.0225,-0.0224,0,0,-0.0413,-0.0408,-0.0416,-0.0415,-0.0407,-0.0398,-0.0402,-0.0389,-0.0381,-0.0385,-0.0357,-0.034,-0.0331,-0.0305,-0.0292,-0.0313,-0.0268,-0.0316,-0.0333,-0.0275,-0.0272,-0.0268,-0.0236,-0.023,-0.0316,-0.0316,-0.0317,0,-0.0422,-0.0431,-0.0418,-0.0427,-0.0432,-0.0411,-0.0426,-0.0419,-0.0407,-0.0404,-0.0395,-0.0365,-0.034,-0.0322,-0.0327,-0.032,-0.0289,-0.0315,-0.0278,-0.0274,-0.027,-0.0237,-0.0229,-0.0319,-0.0318,-0.0318,-0.0318,0,-0.0442,-0.0457,-0.0463,-0.0471,-0.0475,-0.0484,-0.0477,-0.048,-0.0472,-0.0459,-0.0446,-0.0409,-0.0386,-0.0378,-0.0357,-0.0324,-0.0313,-0.029,-0.0262,-0.027,-0.0236,-0.0227,-0.0322,-0.0321,-0.032,-0.032,0,0,-0.0451,-0.0472,-0.0477,-0.0491,-0.05,-0.0504,-0.0521,-0.0521,-0.0524,-0.0507,-0.0504,-0.0468,-0.0438,-0.0421,-0.0387,-0.0337,-0.0283,-0.0305,-0.0301,-0.0268,-0.017,-0.0174,-0.0165,-0.0249,-0.0247,-0.0246,-0.0164,0,-0.0471,-0.0497,-0.0506,-0.0542,-0.0557,-0.0558,-0.0575,-0.0573,-0.0564,-0.0557,-0.0509,-0.0493,-0.0458,-0.0441,-0.0386,-0.0316,-0.0259,-0.0309,-0.0172,-0.0168,-0.0165,-0.0154,-0.0241,-0.0157,-0.0155,-0.0153,-0.0152,0,-0.049,-0.0504,-0.054,-0.0575,-0.0583,-0.0605,-0.0622,-0.0631,-0.0617,-0.0606,-0.0575,-0.0542,-0.0485,-0.0443,-0.0315,-0.035,-0.0259,-0.0196,-0.019,-0.017,-0.0155,-0.0143,-0.0135,-0.0136,-0.0138,-0.0139,-0.014,0,-0.0494,-0.0532,-0.0561,-0.0574,-0.0607,-0.0628,-0.0643,-0.0646,-0.0646,-0.0631,-0.0622,-0.0562,-0.0524,-0.0413,-0.0302,-0.0297,-0.0156,-0.013,-0.0046,-0.0047,-0.0049,-0.0053,-0.0009,-0.0009,-0.0009,-0.0009,-0.001,0,-0.0509,-0.0537,-0.0567,-0.0584,-0.062,-0.0639,-0.0668,-0.0675,-0.0672,-0.0667,-0.0639,-0.0614,-0.0507,-0.0426,-0.0312,-0.017,-0.0159,-0.0044,-0.0018,-0.0073,-0.008,-0.0043,-0.0049,-0.0006,-0.0007,-0.0008,-0.0008,0,-0.0517,-0.0536,-0.0573,-0.0612,-0.0626,-0.0651,-0.0685,-0.0697,-0.0696,-0.0687,-0.0682,-0.0641,-0.0546,-0.0443,-0.0275,-0.0183,-0.0048,0.0011,-0.0085,-0.0066,0.0026,0.0018,0.0116,0.0117,0.0117,0.0118,0.0118,0,-0.0525,-0.0542,-0.0588,-0.061,-0.0634,-0.0668,-0.0691,-0.0705,-0.0708,-0.0692,-0.0681,-0.0618,-0.0574,-0.036,-0.0254,-0.0066,-0.0021,0.0046,0.0068,0.0027,0.0043,0.0034,0.0025,0.0119,0.0119,0.012,0.012,0,-0.0539,-0.0556,-0.0581,-0.0619,-0.0653,-0.0685,-0.0713,-0.0711,-0.0714,-0.0713,-0.0653,-0.0565,-0.047,-0.0344,-0.0217,-0.007,-0.0008,0.0053,0.0054,0.0075,0.0032,0.0045,0.0036,0.0122,0.0122,0.0121,0.0121,0,-0.0549,-0.0566,-0.0595,-0.0625,-0.0667,-0.0693,-0.0707,-0.0697,-0.0693,-0.0662,-0.0641,-0.0553,-0.0508,-0.0343,-0.022,-0.0102,-0.0045,0.0025,0.0029,0.0028,-0.0028,-0.0098,-0.0017,0,0,0,0,0,-0.0555,-0.0569,-0.0599,-0.0635,-0.0674,-0.0697,-0.0718,-0.0722,-0.0715,-0.066,-0.0643,-0.0549,-0.0381,-0.0329,-0.0204,-0.0207,-0.0039,-0.0055,0.0041,0.0134,0.0131,0.008,0,0,0,0,0,0,-0.056,-0.0588,-0.0594,-0.0632,-0.0659,-0.07,-0.0714,-0.071,-0.067,-0.0648,-0.0566,-0.0506,-0.036,-0.0458,-0.0203,-0.0172,-0.0086,0.0017,0.0021,0.0135,0.0133,0.0131,0.0078,0,0,0,0,0]}]]